PHKAY FGAN-FPST

Flight info

Callsign PHKAY
Flight time 0h 50m
Altitude 9500
Route VFR
Aircraft BE36/L-VGDW/C

Departure

Time 2026-04-20 18:15
Airport Annobón Airport (FGAN)

Arrival

Time 2026-04-20 19:05
Airport São Tomé International Airport (FPST)
Time Latitude Longitude Altitude Speed Heading
2026-04-20 18:02 -1.40964 5.62130 85 ft 0 kts 52°
2026-04-20 18:03 -1.40963 5.62141 85 ft 9 kts 122°
2026-04-20 18:04 -1.41014 5.62127 85 ft 7 kts 204°
2026-04-20 18:04 -1.41070 5.62183 85 ft 14 kts 63°
2026-04-20 18:04 -1.40979 5.62277 85 ft 24 kts 48°
2026-04-20 18:04 -1.40860 5.62413 85 ft 22 kts 49°
2026-04-20 18:05 -1.40804 5.62420 85 ft 6 kts 248°
2026-04-20 18:05 -1.40802 5.62409 85 ft 0 kts 46°
2026-04-20 18:11 -1.40793 5.62421 85 ft 6 kts 73°
2026-04-20 18:11 -1.40792 5.62437 85 ft 0 kts 108°
2026-04-20 18:12 -1.40797 5.62442 85 ft 2 kts 126°
2026-04-20 18:13 -1.40810 5.62458 85 ft 7 kts 132°
2026-04-20 18:13 -1.40828 5.62462 85 ft 0 kts 229°
2026-04-20 18:13 -1.40954 5.62319 85 ft 63 kts 229°
2026-04-20 18:14 -1.41352 5.61869 120 ft 100 kts 229°
2026-04-20 18:14 -1.41733 5.61367 373 ft 85 kts 246°
2026-04-20 18:14 -1.41679 5.60777 545 ft 93 kts 303°
2026-04-20 18:14 -1.41044 5.60582 673 ft 109 kts 15°
2026-04-20 18:15 -1.40377 5.60999 848 ft 107 kts 35°
2026-04-20 18:15 -1.39867 5.61432 1058 ft 95 kts 38°
2026-04-20 18:15 -1.39303 5.61895 1018 ft 109 kts 38°
2026-04-20 18:15 -1.38704 5.62388 1059 ft 111 kts 38°
2026-04-20 18:16 -1.38112 5.62867 1178 ft 106 kts 36°
2026-04-20 18:16 -1.37494 5.63328 1312 ft 114 kts 35°
2026-04-20 18:16 -1.36828 5.63820 1446 ft 120 kts 35°
2026-04-20 18:16 -1.36133 5.64331 1577 ft 125 kts 35°
2026-04-20 18:17 -1.35417 5.64856 1707 ft 127 kts 35°
2026-04-20 18:17 -1.34691 5.65387 1834 ft 129 kts 35°
2026-04-20 18:17 -1.33914 5.65905 1929 ft 139 kts 31°
2026-04-20 18:17 -1.33060 5.66441 2063 ft 149 kts 31°
2026-04-20 18:18 -1.32121 5.67026 2200 ft 158 kts 31°
2026-04-20 18:18 -1.31179 5.67650 2331 ft 165 kts 36°
2026-04-20 18:18 -1.30255 5.68378 2461 ft 170 kts 41°
2026-04-20 18:18 -1.29356 5.69165 2589 ft 173 kts 41°
2026-04-20 18:19 -1.28441 5.69969 2717 ft 176 kts 41°
2026-04-20 18:19 -1.27494 5.70798 2846 ft 179 kts 41°
2026-04-20 18:19 -1.26548 5.71625 2973 ft 180 kts 41°
2026-04-20 18:19 -1.25601 5.72452 3099 ft 181 kts 41°
2026-04-20 18:20 -1.24630 5.73297 3227 ft 182 kts 41°
2026-04-20 18:20 -1.23650 5.74149 3355 ft 183 kts 41°
2026-04-20 18:20 -1.22642 5.75009 3486 ft 183 kts 39°
2026-04-20 18:20 -1.21613 5.75781 3613 ft 183 kts 36°
2026-04-20 18:21 -1.20576 5.76535 3739 ft 184 kts 36°
2026-04-20 18:21 -1.19545 5.77282 3864 ft 184 kts 36°
2026-04-20 18:21 -1.18506 5.78032 3990 ft 184 kts 36°
2026-04-20 18:21 -1.17457 5.78788 4117 ft 184 kts 36°
2026-04-20 18:22 -1.16416 5.79537 4243 ft 184 kts 36°
2026-04-20 18:22 -1.15357 5.80296 4370 ft 185 kts 36°
2026-04-20 18:22 -1.14315 5.81041 4496 ft 185 kts 36°
2026-04-20 18:22 -1.13272 5.81785 4622 ft 185 kts 36°
2026-04-20 18:23 -1.12191 5.82554 4752 ft 185 kts 36°
2026-04-20 18:23 -1.11145 5.83296 4877 ft 185 kts 36°
2026-04-20 18:23 -1.10081 5.84047 5005 ft 185 kts 36°
2026-04-20 18:23 -1.09028 5.84789 5138 ft 184 kts 33°
2026-04-20 18:24 -1.07993 5.85591 5264 ft 180 kts 36°
2026-04-20 18:24 -1.06986 5.86329 5386 ft 177 kts 31°
2026-04-20 18:24 -1.05934 5.86977 5509 ft 176 kts 28°
2026-04-20 18:24 -1.04870 5.87602 5633 ft 175 kts 28°
2026-04-20 18:25 -1.03772 5.88244 5761 ft 175 kts 28°
2026-04-20 18:25 -1.02689 5.88878 5888 ft 174 kts 28°
2026-04-20 18:25 -1.01621 5.89507 6013 ft 172 kts 29°
2026-04-20 18:25 -1.00602 5.90140 6136 ft 171 kts 30°
2026-04-20 18:26 -0.99584 5.90792 6260 ft 170 kts 31°
2026-04-20 18:26 -0.98582 5.91455 6385 ft 170 kts 31°
2026-04-20 18:26 -0.97596 5.92109 6508 ft 170 kts 31°
2026-04-20 18:26 -0.96604 5.92766 6633 ft 170 kts 31°
2026-04-20 18:27 -0.95583 5.93444 6761 ft 170 kts 31°
2026-04-20 18:27 -0.94582 5.94108 6886 ft 170 kts 31°
2026-04-20 18:27 -0.93609 5.94754 7008 ft 170 kts 31°
2026-04-20 18:27 -0.92570 5.95443 7138 ft 170 kts 31°
2026-04-20 18:28 -0.91531 5.96131 7269 ft 170 kts 31°
2026-04-20 18:28 -0.90547 5.96783 7392 ft 171 kts 31°
2026-04-20 18:28 -0.89470 5.97496 7527 ft 171 kts 31°
2026-04-20 18:28 -0.88397 5.98205 7664 ft 171 kts 31°
2026-04-20 18:29 -0.87398 5.98865 7791 ft 171 kts 31°
2026-04-20 18:29 -0.86379 5.99537 7920 ft 172 kts 31°
2026-04-20 18:29 -0.85362 6.00208 8049 ft 172 kts 31°
2026-04-20 18:29 -0.84366 6.00863 8175 ft 172 kts 31°
2026-04-20 18:30 -0.83352 6.01530 8304 ft 172 kts 31°
2026-04-20 18:30 -0.82340 6.02195 8432 ft 172 kts 31°
2026-04-20 18:30 -0.81327 6.02860 8559 ft 172 kts 31°
2026-04-20 18:30 -0.80326 6.03516 8686 ft 172 kts 31°
2026-04-20 18:31 -0.79302 6.04186 8815 ft 172 kts 31°
2026-04-20 18:31 -0.78301 6.04840 8941 ft 172 kts 31°
2026-04-20 18:31 -0.77283 6.05504 9070 ft 172 kts 31°
2026-04-20 18:31 -0.76281 6.06157 9196 ft 172 kts 31°
2026-04-20 18:32 -0.75269 6.06814 9267 ft 175 kts 31°
2026-04-20 18:32 -0.74193 6.07446 9278 ft 179 kts 28°
2026-04-20 18:32 -0.73085 6.08082 9279 ft 183 kts 28°
2026-04-20 18:32 -0.71966 6.08723 9278 ft 185 kts 28°
2026-04-20 18:33 -0.70844 6.09366 9278 ft 186 kts 28°
2026-04-20 18:33 -0.69712 6.10014 9278 ft 187 kts 28°
2026-04-20 18:33 -0.68585 6.10660 9277 ft 187 kts 28°
2026-04-20 18:33 -0.67443 6.11315 9277 ft 187 kts 28°
2026-04-20 18:34 -0.66306 6.11966 9277 ft 187 kts 28°
2026-04-20 18:34 -0.65156 6.12625 9277 ft 188 kts 28°
2026-04-20 18:34 -0.64019 6.13277 9277 ft 188 kts 28°
2026-04-20 18:34 -0.62952 6.13889 9277 ft 188 kts 28°
2026-04-20 18:35 -0.62243 6.14296 9277 ft 188 kts 28°
2026-04-20 18:35 -0.61097 6.14954 9277 ft 188 kts 28°
2026-04-20 18:35 -0.59968 6.15601 9277 ft 188 kts 28°
2026-04-20 18:35 -0.58835 6.16251 9277 ft 188 kts 28°
2026-04-20 18:36 -0.57693 6.16906 9277 ft 188 kts 28°
2026-04-20 18:36 -0.56558 6.17559 9277 ft 188 kts 28°
2026-04-20 18:36 -0.55422 6.18211 9277 ft 188 kts 28°
2026-04-20 18:36 -0.54293 6.18859 9277 ft 188 kts 28°
2026-04-20 18:37 -0.53158 6.19511 9277 ft 188 kts 28°
2026-04-20 18:37 -0.52022 6.20164 9277 ft 188 kts 28°
2026-04-20 18:37 -0.50885 6.20818 9277 ft 188 kts 28°
2026-04-20 18:37 -0.49761 6.21464 9277 ft 188 kts 28°
2026-04-20 18:38 -0.48614 6.22124 9277 ft 188 kts 28°
2026-04-20 18:38 -0.47468 6.22783 9277 ft 188 kts 28°
2026-04-20 18:38 -0.46340 6.23432 9277 ft 188 kts 28°
2026-04-20 18:38 -0.45205 6.24085 9277 ft 188 kts 28°
2026-04-20 18:39 -0.44079 6.24733 9276 ft 188 kts 28°
2026-04-20 18:39 -0.42941 6.25389 9276 ft 188 kts 28°
2026-04-20 18:39 -0.41806 6.26042 9276 ft 188 kts 28°
2026-04-20 18:39 -0.40666 6.26699 9276 ft 188 kts 28°
2026-04-20 18:40 -0.39538 6.27349 9276 ft 188 kts 28°
2026-04-20 18:40 -0.38399 6.28005 9276 ft 188 kts 28°
2026-04-20 18:40 -0.37269 6.28657 9276 ft 188 kts 28°
2026-04-20 18:40 -0.36133 6.29311 9276 ft 188 kts 28°
2026-04-20 18:41 -0.35007 6.29961 9276 ft 188 kts 28°
2026-04-20 18:41 -0.33881 6.30610 9276 ft 188 kts 28°
2026-04-20 18:41 -0.32754 6.31261 9276 ft 188 kts 28°
2026-04-20 18:41 -0.32299 6.31523 9276 ft 188 kts 28°
2026-04-20 18:42 -0.31155 6.32183 9276 ft 188 kts 28°
2026-04-20 18:42 -0.30035 6.32830 9276 ft 188 kts 28°
2026-04-20 18:42 -0.28896 6.33488 9276 ft 187 kts 28°
2026-04-20 18:42 -0.27742 6.34154 9276 ft 187 kts 28°
2026-04-20 18:43 -0.26611 6.34800 9276 ft 188 kts 30°
2026-04-20 18:43 -0.25426 6.35415 9276 ft 187 kts 28°
2026-04-20 18:43 -0.24245 6.36023 9275 ft 187 kts 28°
2026-04-20 18:43 -0.23060 6.36634 9275 ft 187 kts 28°
2026-04-20 18:44 -0.21897 6.37232 9275 ft 187 kts 28°
2026-04-20 18:44 -0.20764 6.37877 9275 ft 187 kts 33°
2026-04-20 18:44 -0.19654 6.38579 9275 ft 187 kts 33°
2026-04-20 18:44 -0.18547 6.39284 9275 ft 187 kts 33°
2026-04-20 18:45 -0.17442 6.39987 9275 ft 187 kts 33°
2026-04-20 18:45 -0.16353 6.40696 9275 ft 187 kts 36°
2026-04-20 18:45 -0.15281 6.41460 9270 ft 187 kts 36°
2026-04-20 18:45 -0.14214 6.42224 9273 ft 187 kts 37°
2026-04-20 18:46 -0.13151 6.42988 9267 ft 187 kts 37°
2026-04-20 18:46 -0.12078 6.43758 9277 ft 187 kts 37°
2026-04-20 18:46 -0.11016 6.44520 9275 ft 187 kts 37°
2026-04-20 18:46 -0.09964 6.45275 9275 ft 187 kts 37°
2026-04-20 18:47 -0.08897 6.46041 9275 ft 187 kts 37°
2026-04-20 18:47 -0.07845 6.46796 9272 ft 187 kts 36°
2026-04-20 18:47 -0.06788 6.47554 9275 ft 187 kts 37°
2026-04-20 18:47 -0.05730 6.48314 9275 ft 187 kts 37°
2026-04-20 18:48 -0.04675 6.49072 9275 ft 187 kts 37°
2026-04-20 18:48 -0.03606 6.49840 9275 ft 187 kts 37°
2026-04-20 18:48 -0.02542 6.50605 9222 ft 189 kts 37°
2026-04-20 18:48 -0.01462 6.51380 9100 ft 193 kts 37°
2026-04-20 18:49 -0.00341 6.52185 8973 ft 196 kts 37°
2026-04-20 18:49 0.00791 6.52996 8845 ft 198 kts 37°
2026-04-20 18:49 0.01916 6.53800 8718 ft 199 kts 37°
2026-04-20 18:49 0.03020 6.54589 8579 ft 187 kts 37°
2026-04-20 18:50 0.04031 6.55304 8439 ft 172 kts 37°
2026-04-20 18:50 0.04999 6.55983 8298 ft 161 kts 37°
2026-04-20 18:50 0.05815 6.56728 8156 ft 150 kts 48°
2026-04-20 18:50 0.06515 6.57473 8018 ft 142 kts 49°
2026-04-20 18:51 0.07167 6.58215 7877 ft 135 kts 58°
2026-04-20 18:51 0.07572 6.59031 7734 ft 122 kts 66°
2026-04-20 18:51 0.07904 6.59774 7594 ft 113 kts 67°
2026-04-20 18:51 0.08221 6.60483 7453 ft 106 kts 67°
2026-04-20 18:52 0.08512 6.61131 7317 ft 100 kts 67°
2026-04-20 18:52 0.08795 6.61753 7179 ft 95 kts 67°
2026-04-20 18:52 0.09065 6.62340 7048 ft 94 kts 67°
2026-04-20 18:52 0.09360 6.62981 6931 ft 103 kts 67°
2026-04-20 18:53 0.09673 6.63661 6812 ft 109 kts 67°
2026-04-20 18:53 0.09999 6.64371 6691 ft 114 kts 67°
2026-04-20 18:53 0.10407 6.65108 6562 ft 118 kts 56°
2026-04-20 18:53 0.10976 6.65744 6440 ft 121 kts 49°
2026-04-20 18:54 0.11575 6.66372 6316 ft 123 kts 49°
2026-04-20 18:54 0.12195 6.66989 6192 ft 125 kts 45°
2026-04-20 18:54 0.12857 6.67569 6069 ft 126 kts 44°
2026-04-20 18:54 0.13522 6.68146 5946 ft 127 kts 44°
2026-04-20 18:55 0.14198 6.68730 5821 ft 127 kts 44°
2026-04-20 18:55 0.14886 6.69324 5693 ft 128 kts 44°
2026-04-20 18:55 0.15551 6.69897 5561 ft 128 kts 44°
2026-04-20 18:55 0.16252 6.70502 5303 ft 131 kts 44°
2026-04-20 18:56 0.16947 6.71100 5055 ft 132 kts 44°
2026-04-20 18:56 0.17651 6.71706 4804 ft 133 kts 44°
2026-04-20 18:56 0.18372 6.72325 4549 ft 134 kts 44°
2026-04-20 18:56 0.19076 6.72928 4299 ft 134 kts 44°
2026-04-20 18:57 0.19784 6.73536 4049 ft 134 kts 44°
2026-04-20 18:57 0.20506 6.74154 3794 ft 134 kts 44°
2026-04-20 18:57 0.21218 6.74763 3545 ft 135 kts 44°
2026-04-20 18:57 0.21989 6.75333 3297 ft 143 kts 34°
2026-04-20 18:58 0.23007 6.75936 3045 ft 168 kts 31°
2026-04-20 18:58 0.24204 6.76387 2801 ft 187 kts 15°
2026-04-20 18:58 0.25505 6.76678 2561 ft 197 kts 14°
2026-04-20 18:58 0.26869 6.76978 2314 ft 202 kts 14°
2026-04-20 18:59 0.28282 6.77257 2052 ft 207 kts
2026-04-20 18:59 0.29688 6.77096 1812 ft 206 kts 339°
2026-04-20 18:59 0.30920 6.76413 1784 ft 196 kts 330°
2026-04-20 18:59 0.32097 6.75717 1776 ft 193 kts 328°
2026-04-20 19:00 0.32945 6.74695 1776 ft 190 kts 298°
2026-04-20 19:00 0.33587 6.73548 1777 ft 188 kts 297°
2026-04-20 19:00 0.34225 6.72379 1777 ft 188 kts 297°
2026-04-20 19:00 0.34865 6.71203 1777 ft 189 kts 297°
2026-04-20 19:01 0.35482 6.70109 1640 ft 168 kts 298°
2026-04-20 19:01 0.36069 6.69145 1407 ft 151 kts 299°
2026-04-20 19:01 0.36672 6.68192 1225 ft 154 kts 300°
2026-04-20 19:01 0.37273 6.67226 1160 ft 155 kts 298°
2026-04-20 19:02 0.37833 6.66299 1144 ft 151 kts 298°
2026-04-20 19:02 0.38495 6.65603 1017 ft 133 kts 335°
2026-04-20 19:02 0.39352 6.65644 743 ft 116 kts 39°
2026-04-20 19:02 0.39466 6.66181 582 ft 76 kts 124°
2026-04-20 19:03 0.39143 6.66567 510 ft 71 kts 133°
2026-04-20 19:03 0.38866 6.67009 552 ft 82 kts 112°
2026-04-20 19:03 0.38716 6.67616 534 ft 89 kts 108°
2026-04-20 19:03 0.38584 6.68205 528 ft 89 kts 104°
2026-04-20 19:04 0.38439 6.68801 382 ft 87 kts 108°
2026-04-20 19:04 0.38276 6.69385 225 ft 88 kts 109°
2026-04-20 19:04 0.38125 6.69949 94 ft 79 kts 108°
2026-04-20 19:04 0.37993 6.70470 37 ft 72 kts 104°
2026-04-20 19:05 0.37896 6.70876 36 ft 49 kts 103°
2026-04-20 19:05 0.37828 6.71160 36 ft 36 kts 104°
2026-04-20 19:05 0.37768 6.71308 36 ft 9 kts 182°
2026-04-20 19:05 0.37707 6.71294 36 ft 8 kts 192°
2026-04-20 19:06 0.37681 6.71288 36 ft 0 kts 193°
2026-04-20 19:06 0.37662 6.71284 36 ft 6 kts 192°
2026-04-20 19:06 0.37605 6.71273 36 ft 8 kts 173°
2026-04-20 19:07 0.37582 6.71286 36 ft 4 kts 129°
2026-04-20 19:07 0.37575 6.71315 36 ft 4 kts 84°
2026-04-20 19:07 0.37568 6.71339 36 ft 0 kts 197°
2026-04-20 19:07 0.37567 6.71333 36 ft 1 kts 301°
2026-04-20 19:08 0.37570 6.71321 36 ft 2 kts 268°
2026-04-20 19:08 0.37569 6.71314 36 ft 0 kts 275°